[[{"header":{"parameterUnit":"m.s-1","parameterCategory":1,"la1":30.2991,"la2":30.254,"lo1":-89.0895,"lo2":-89.0444,"dy":0.0017,"dx":0.0017,"nx":28,"ny":28,"refTime":"2025-08-24T21:00:00:Z","depth":0,"parameterNumber":2,"parameterNumberName":"U-component_of_WINDS"},"data":[0,0,0,0,0,0,0,0,0,0,0,0,0,0,0,0,0,0,0,0,0,0,0,0,0,0,0,0,0,0,0,0,0,0,0,0,0,0,0,0,0,0,0,0,0,0,0,0,0,0,0,0,0,0,0,0,0,0,-3.7453,-3.7453,0,-3.7427,-3.7426,-3.7426,-3.7403,-3.7402,-3.7402,-3.7402,-3.7371,-3.737,-3.737,0,0,0,0,0,0,0,0,0,0,0,0,0,-3.7483,-3.7482,-3.7453,-3.7453,-3.7453,-3.7427,-3.7426,-3.7426,-3.7403,-3.7402,-3.7402,-3.7402,-3.7371,-3.7371,-3.737,0,0,0,0,0,0,0,0,0,0,0,0,0,-3.7464,-3.7482,-3.7453,-3.7438,-3.7437,-3.7427,-3.7426,-3.7426,-3.7403,-3.7402,-3.7402,-3.7402,-3.7371,-3.7371,-3.737,-3.7372,0,0,-3.7367,-3.7367,0,0,0,0,0,0,0,0,-3.7465,-3.7463,-3.7441,-3.7439,-3.7437,-3.7418,-3.7425,-3.7408,-3.7403,-3.7416,-3.7402,-3.7402,-3.7387,-3.7384,-3.738,-3.737,-3.7369,-3.7367,-3.7366,-3.7366,-3.7366,0,0,0,0,0,0,0,-3.7467,-3.7464,-3.7443,-3.744,-3.7438,-3.7432,-3.7429,-3.7422,-3.7403,-3.7414,-3.7413,-3.741,-3.7386,-3.7381,-3.7379,-3.7369,-3.7367,-3.7366,-3.7366,-3.7365,-3.7359,-3.736,0,0,0,0,0,0,-3.7471,-3.7465,-3.7444,-3.7442,-3.7451,-3.7432,-3.7428,-3.7424,-3.7403,-3.74,-3.741,-3.7409,-3.7383,-3.738,-3.7378,-3.7379,-3.7366,-3.7365,-3.7365,-3.7359,-3.7359,-3.736,0,0,0,0,0,0,-3.7471,-3.7469,-3.7445,-3.7453,-3.745,-3.7432,-3.7427,-3.7424,-3.7419,-3.74,-3.7397,-3.7409,-3.7382,-3.7379,-3.7374,-3.7377,-3.7365,-3.7364,-3.7358,-3.7359,-3.736,-3.7381,0,0,0,0,0,0,-3.7472,-3.7469,-3.747,-3.7453,-3.7449,-3.7442,-3.7428,-3.7424,-3.7418,-3.7416,-3.7398,-3.7395,-3.7382,-3.7375,-3.7373,-3.7376,-3.7363,-3.7358,-3.7359,-3.7359,-3.738,-3.7382,-3.7384,0,0,0,0,0,-3.7473,-3.7477,-3.747,-3.7468,-3.745,-3.7442,-3.7439,-3.7425,-3.7419,-3.7419,-3.7407,-3.7396,-3.7378,-3.7375,-3.7372,-3.7375,-3.7358,-3.7359,-3.7359,-3.7379,-3.7381,-3.7384,0,0,0,0,0,0,-3.7493,-3.7474,-3.7467,-3.7465,-3.7455,-3.7438,-3.7438,-3.7429,-3.742,-3.7418,-3.74,-3.7396,-3.7392,-3.7383,-3.738,-3.7376,-3.7366,-3.7367,-3.7382,-3.7384,-3.7387,-3.7388,-3.7363,0,0,0,0,0,-3.7497,-3.7493,-3.7476,-3.7476,-3.7472,-3.7456,-3.7452,-3.7442,-3.7431,-3.7426,-3.7413,-3.7402,-3.7394,-3.7389,-3.738,-3.7379,-3.7374,-3.7379,-3.7382,-3.7384,-3.7383,-3.7382,-3.7384,-3.7363,-3.7363,-3.7362,0,0,-3.7505,-3.7495,-3.7493,-3.748,-3.7471,-3.7466,-3.7452,-3.7448,-3.7443,-3.7425,-3.7419,-3.741,-3.7396,-3.7392,-3.739,-3.7385,-3.7389,-3.7385,-3.7386,-3.7385,-3.7383,-3.7385,-3.7387,-3.7363,-3.7363,-3.7363,0,0,-3.7518,-3.751,-3.7509,-3.7501,-3.7488,-3.7478,-3.7478,-3.7462,-3.7456,-3.745,-3.7436,-3.7431,-3.7417,-3.7408,-3.7402,-3.7413,-3.7401,-3.741,-3.7421,-3.742,-3.7421,-3.7423,-3.7426,-3.7427,-3.7411,-3.7411,-3.7411,0,-3.7529,-3.7522,-3.7509,-3.7505,-3.75,-3.7485,-3.7483,-3.7476,-3.7461,-3.7457,-3.7452,-3.7435,-3.7424,-3.7419,-3.7421,-3.7417,-3.7416,-3.7411,-3.7422,-3.7423,-3.7424,-3.7427,-3.7429,-3.7412,-3.7412,-3.7412,-3.7411,0,-3.7536,-3.7532,-3.7532,-3.752,-3.7514,-3.7512,-3.7498,-3.7494,-3.7485,-3.7475,-3.747,-3.7457,-3.7446,-3.7444,-3.7435,-3.7437,-3.7434,-3.7426,-3.7415,-3.7428,-3.743,-3.7431,-3.7413,-3.7413,-3.7413,-3.7412,0,0,-3.7558,-3.754,-3.754,-3.7535,-3.7521,-3.7516,-3.7513,-3.7504,-3.75,-3.7491,-3.7487,-3.7477,-3.747,-3.7463,-3.7452,-3.7451,-3.746,-3.7443,-3.7442,-3.7446,-3.7461,-3.7467,-3.7468,-3.7453,-3.7453,-3.7454,-3.7462,0,-3.7568,-3.7562,-3.7551,-3.7548,-3.7543,-3.753,-3.7527,-3.7518,-3.7509,-3.7503,-3.7493,-3.7486,-3.7477,-3.7472,-3.7471,-3.7459,-3.7463,-3.7459,-3.7448,-3.7448,-3.7451,-3.7469,-3.7475,-3.7483,-3.7463,-3.7463,-3.7463,0,-3.7577,-3.757,-3.7568,-3.7555,-3.7552,-3.755,-3.754,-3.7535,-3.7525,-3.7518,-3.7511,-3.7501,-3.7496,-3.7488,-3.748,-3.7478,-3.7474,-3.7467,-3.7467,-3.7465,-3.7455,-3.7466,-3.7486,-3.7486,-3.7464,-3.7464,-3.7464,0,-3.7593,-3.7583,-3.758,-3.7575,-3.756,-3.7559,-3.7552,-3.7542,-3.7537,-3.7528,-3.7525,-3.7516,-3.7511,-3.7503,-3.749,-3.7486,-3.7485,-3.7475,-3.7478,-3.7478,-3.7477,-3.7477,-3.7495,-3.7476,-3.7476,-3.7476,-3.7476,0,-3.7604,-3.7602,-3.7586,-3.7584,-3.7583,-3.757,-3.7568,-3.756,-3.7551,-3.7547,-3.7534,-3.753,-3.7514,-3.7508,-3.7498,-3.7493,-3.7491,-3.7485,-3.7482,-3.7486,-3.7486,-3.7481,-3.748,-3.7477,-3.7477,-3.7476,-3.7476,0,-3.762,-3.7609,-3.7605,-3.7592,-3.7589,-3.7588,-3.7576,-3.7573,-3.7565,-3.7559,-3.7557,-3.7543,-3.7536,-3.7523,-3.7511,-3.7504,-3.7501,-3.7497,-3.7505,-3.7503,-3.7506,-3.7506,-3.752,-3.7521,-3.7503,-3.7504,-3.7504,0,-3.7627,-3.7625,-3.7613,-3.761,-3.7604,-3.7599,-3.7594,-3.7582,-3.7578,-3.7566,-3.7565,-3.7557,-3.7549,-3.7538,-3.7526,-3.7517,-3.7512,-3.7518,-3.751,-3.7514,-3.7511,-3.7511,-3.751,-3.7519,-3.7519,-3.7519,-3.752,0,-3.764,-3.7635,-3.763,-3.7622,-3.7618,-3.7611,-3.7604,-3.7602,-3.7588,-3.7583,-3.7576,-3.7571,-3.756,-3.7552,-3.7542,-3.7534,-3.7524,-3.7522,-3.7522,-3.7525,-3.7529,-3.7526,-3.7508,-3.7522,-3.7521,-3.7521,-3.7521,-3.7521,-3.7651,-3.7649,-3.764,-3.7635,-3.7628,-3.7622,-3.7619,-3.7611,-3.7605,-3.7596,-3.7589,-3.7582,-3.7572,-3.7557,-3.7551,-3.7545,-3.754,-3.754,-3.754,-3.754,-3.7541,-3.7532,-3.7543,-3.7543,-3.7543,-3.7542,-3.7542,0,-3.7663,-3.7657,-3.7652,-3.7643,-3.7638,-3.7632,-3.7623,-3.762,-3.7614,-3.7606,-3.76,-3.7592,-3.7584,-3.7572,-3.7564,-3.7561,-3.7556,-3.7559,-3.7558,-3.7557,-3.7546,-3.7546,-3.7563,-3.7563,-3.7563,-3.7563,-3.7563,-3.7563,-3.7668,-3.7665,-3.766,-3.7653,-3.7647,-3.7641,-3.7637,-3.7631,-3.7625,-3.7617,-3.7611,-3.7604,-3.7594,-3.7585,-3.7577,-3.7574,-3.7571,-3.7575,-3.757,-3.7559,-3.7557,-3.7556,-3.7556,-3.7574,-3.7574,-3.7581,-3.7581,-3.7581]},{"header":{"parameterUnit":"m.s-1","parameterCategory":1,"la1":30.2991,"la2":30.254,"lo1":-89.0895,"lo2":-89.0444,"dy":0.0017,"dx":0.0017,"nx":28,"ny":28,"refTime":"2025-08-24T21:00:00:Z","depth":0,"parameterNumber":3,"parameterNumberName":"V-component_of_WINDS"},"data":[0,0,0,0,0,0,0,0,0,0,0,0,0,0,0,0,0,0,0,0,0,0,0,0,0,0,0,0,0,0,0,0,0,0,0,0,0,0,0,0,0,0,0,0,0,0,0,0,0,0,0,0,0,0,0,0,0,0,-1.0716,-1.0716,0,-1.0731,-1.0731,-1.0731,-1.0735,-1.0735,-1.0735,-1.0734,-1.075,-1.075,-1.0751,0,0,0,0,0,0,0,0,0,0,0,0,0,-1.0689,-1.0689,-1.0716,-1.0716,-1.0716,-1.0731,-1.0731,-1.0731,-1.0735,-1.0735,-1.0735,-1.0734,-1.075,-1.075,-1.0751,0,0,0,0,0,0,0,0,0,0,0,0,0,-1.0702,-1.0689,-1.0716,-1.072,-1.072,-1.0731,-1.0731,-1.0731,-1.0735,-1.0735,-1.0734,-1.0734,-1.0749,-1.075,-1.0751,-1.0759,0,0,-1.0753,-1.0753,0,0,0,0,0,0,0,0,-1.0701,-1.0703,-1.0719,-1.0719,-1.072,-1.0731,-1.0727,-1.0741,-1.0735,-1.0729,-1.0734,-1.0734,-1.0744,-1.0745,-1.0748,-1.0759,-1.076,-1.0753,-1.0754,-1.0754,-1.0754,0,0,0,0,0,0,0,-1.07,-1.0702,-1.0722,-1.0719,-1.072,-1.072,-1.0722,-1.073,-1.0737,-1.073,-1.073,-1.0732,-1.0744,-1.0747,-1.0748,-1.076,-1.0753,-1.0754,-1.0754,-1.0755,-1.0778,-1.0778,0,0,0,0,0,0,-1.0699,-1.0701,-1.0721,-1.0722,-1.071,-1.0721,-1.0723,-1.0728,-1.0737,-1.0738,-1.0732,-1.0732,-1.0746,-1.0747,-1.0749,-1.0758,-1.0754,-1.0755,-1.0755,-1.0778,-1.0778,-1.0778,0,0,0,0,0,0,-1.0698,-1.07,-1.0721,-1.0712,-1.0715,-1.0722,-1.0727,-1.0728,-1.0731,-1.0739,-1.074,-1.0734,-1.0746,-1.0748,-1.0756,-1.0759,-1.0755,-1.0756,-1.0777,-1.0778,-1.0778,-1.0777,0,0,0,0,0,0,-1.0697,-1.07,-1.0704,-1.0712,-1.0715,-1.0728,-1.0727,-1.0728,-1.0733,-1.0733,-1.0741,-1.0742,-1.0746,-1.0755,-1.0757,-1.076,-1.0756,-1.0777,-1.0777,-1.0778,-1.0777,-1.0777,-1.0778,0,0,0,0,0,-1.0696,-1.0703,-1.0704,-1.0706,-1.072,-1.0728,-1.073,-1.0734,-1.0733,-1.0736,-1.0741,-1.0742,-1.0758,-1.0756,-1.0758,-1.0761,-1.0777,-1.0777,-1.0778,-1.0777,-1.0777,-1.0778,0,0,0,0,0,0,-1.0695,-1.0704,-1.0705,-1.0715,-1.0721,-1.0729,-1.0733,-1.0735,-1.0741,-1.0741,-1.0745,-1.0747,-1.0755,-1.0759,-1.0756,-1.0769,-1.0767,-1.0768,-1.0766,-1.0766,-1.0767,-1.0766,-1.0757,0,0,0,0,0,-1.0696,-1.0703,-1.071,-1.0718,-1.0721,-1.0726,-1.073,-1.0733,-1.0739,-1.0741,-1.0747,-1.0752,-1.0758,-1.0763,-1.0769,-1.0777,-1.0779,-1.078,-1.0781,-1.0781,-1.0782,-1.0786,-1.0786,-1.0779,-1.0779,-1.0779,0,0,-1.0698,-1.0704,-1.0708,-1.0718,-1.0723,-1.0729,-1.0728,-1.0735,-1.074,-1.0742,-1.075,-1.0754,-1.0761,-1.0769,-1.0773,-1.0772,-1.0784,-1.0781,-1.0782,-1.0782,-1.0786,-1.0787,-1.0787,-1.0779,-1.0779,-1.0779,0,0,-1.0705,-1.071,-1.0717,-1.0721,-1.0728,-1.0732,-1.0733,-1.0741,-1.0743,-1.0751,-1.0753,-1.0758,-1.0769,-1.0773,-1.0777,-1.0784,-1.0785,-1.0785,-1.0787,-1.0791,-1.0792,-1.0792,-1.0794,-1.0795,-1.0786,-1.0786,-1.0786,0,-1.0707,-1.0716,-1.072,-1.0726,-1.073,-1.0732,-1.0739,-1.0743,-1.0752,-1.0754,-1.0754,-1.0766,-1.0771,-1.078,-1.0781,-1.0784,-1.0786,-1.0785,-1.0791,-1.0792,-1.0792,-1.0794,-1.0795,-1.0786,-1.0786,-1.0786,-1.0786,0,-1.0717,-1.0724,-1.0728,-1.0736,-1.0741,-1.0747,-1.0751,-1.0755,-1.0757,-1.076,-1.0768,-1.0773,-1.078,-1.0782,-1.0784,-1.0791,-1.079,-1.079,-1.0789,-1.0793,-1.0795,-1.0796,-1.0786,-1.0786,-1.0786,-1.0786,0,0,-1.0725,-1.0734,-1.0736,-1.0739,-1.0746,-1.0751,-1.0757,-1.0763,-1.0766,-1.0772,-1.0777,-1.0785,-1.0785,-1.0789,-1.0791,-1.0794,-1.0799,-1.0794,-1.0794,-1.0794,-1.0806,-1.0806,-1.0807,-1.0799,-1.0799,-1.08,-1.0805,0,-1.0733,-1.0744,-1.0747,-1.0756,-1.0761,-1.0763,-1.0768,-1.0772,-1.0775,-1.078,-1.0783,-1.0789,-1.0788,-1.0791,-1.0794,-1.0797,-1.0801,-1.0797,-1.0804,-1.0804,-1.0802,-1.0808,-1.0808,-1.0813,-1.0806,-1.0806,-1.0806,0,-1.0743,-1.0749,-1.0758,-1.0764,-1.0766,-1.0771,-1.0776,-1.0781,-1.0786,-1.0787,-1.0791,-1.0793,-1.0799,-1.0797,-1.0804,-1.0801,-1.0804,-1.0806,-1.0806,-1.0807,-1.0805,-1.0809,-1.0815,-1.0816,-1.0807,-1.0807,-1.0807,0,-1.0748,-1.0757,-1.0764,-1.0766,-1.0773,-1.0776,-1.0779,-1.0783,-1.0787,-1.0791,-1.0794,-1.0799,-1.0802,-1.0806,-1.0808,-1.0807,-1.0815,-1.0814,-1.0817,-1.0817,-1.0819,-1.0819,-1.0826,-1.0821,-1.082,-1.082,-1.082,0,-1.0756,-1.0762,-1.0766,-1.077,-1.0776,-1.0779,-1.0785,-1.0787,-1.0791,-1.0796,-1.0797,-1.0801,-1.0804,-1.0808,-1.0811,-1.0816,-1.0817,-1.0819,-1.0819,-1.0819,-1.0819,-1.0821,-1.0821,-1.0821,-1.0821,-1.0821,-1.0821,0,-1.0762,-1.0765,-1.0773,-1.0778,-1.0779,-1.0783,-1.0787,-1.0791,-1.0793,-1.0799,-1.08,-1.0804,-1.0809,-1.0812,-1.0818,-1.082,-1.0826,-1.0826,-1.0824,-1.0824,-1.0827,-1.0826,-1.0835,-1.0836,-1.0831,-1.0831,-1.0831,0,-1.0768,-1.0772,-1.0777,-1.078,-1.0783,-1.0787,-1.0791,-1.0793,-1.0796,-1.0801,-1.0804,-1.0809,-1.0813,-1.0821,-1.0824,-1.0829,-1.0829,-1.0832,-1.083,-1.0829,-1.0829,-1.0829,-1.0829,-1.0832,-1.0832,-1.0832,-1.0832,0,-1.0777,-1.0777,-1.0782,-1.0786,-1.079,-1.0794,-1.0798,-1.08,-1.0803,-1.0806,-1.0811,-1.0814,-1.082,-1.0825,-1.0829,-1.0832,-1.0832,-1.0833,-1.0834,-1.0833,-1.0832,-1.0832,-1.0825,-1.0833,-1.0833,-1.0833,-1.0833,-1.0833,-1.0782,-1.0786,-1.079,-1.0794,-1.0797,-1.08,-1.0804,-1.0806,-1.081,-1.0815,-1.0816,-1.0821,-1.0825,-1.0831,-1.0833,-1.0837,-1.0837,-1.0838,-1.0838,-1.0839,-1.0839,-1.0831,-1.0838,-1.0838,-1.0838,-1.0838,-1.0838,0,-1.0791,-1.0793,-1.0797,-1.0802,-1.0806,-1.0805,-1.0809,-1.0812,-1.0816,-1.082,-1.0823,-1.0828,-1.0833,-1.0835,-1.084,-1.0842,-1.0842,-1.0843,-1.0843,-1.0843,-1.0839,-1.0838,-1.0843,-1.0843,-1.0843,-1.0843,-1.0843,-1.0843,-1.0796,-1.0802,-1.0803,-1.081,-1.0812,-1.0816,-1.0818,-1.0821,-1.0824,-1.0829,-1.0832,-1.0834,-1.0837,-1.0841,-1.0845,-1.0846,-1.0847,-1.0848,-1.0848,-1.0844,-1.0844,-1.0843,-1.0842,-1.0848,-1.0848,-1.0853,-1.0853,-1.0853]}]]